This is the latest recevied weather packets stored in our database for station/object 4S6DRJ-13. If no packets are shown the sender has not sent any weather packets the latest 10 day(s).
| Time | Temp. | Humidity | Pressure | Rain* | Wind** | Luminosity | Snow |
|---|---|---|---|---|---|---|---|
| 1788193179 | 28.33° C | 83% | 1009.7 hPa | 0 mm | 0.45 m/s, 191° | 0 W/m² | - |
| 1788193118 | 28.33° C | 83% | 1009.8 hPa | 0 mm | 0 m/s | 0 W/m² | - |
| 1788193057 | 28.33° C | 82% | 1009.9 hPa | 0 mm | 0 m/s | 0 W/m² | - |
| 1788192996 | 28.33° C | 82% | 1009.6 hPa | 0 mm | 0 m/s | 0 W/m² | - |
| 1788192935 | 28.33° C | 82% | 1009.9 hPa | 0 mm | 0.89 m/s, 217° | 0 W/m² | - |
| 1788192874 | 28.33° C | 82% | 1009.6 hPa | 0 mm | 0.45 m/s, 171° | 0 W/m² | - |
| 1788192813 | 28.33° C | 82% | 1009.8 hPa | 0 mm | 1.34 m/s, 13° | 0 W/m² | - |
| 1788192752 | 28.33° C | 82% | 1009.7 hPa | 0 mm | 0 m/s | 0 W/m² | - |
| 1788192691 | 28.33° C | 82% | 1009.6 hPa | 0 mm | 0.45 m/s, 226° | 0 W/m² | - |
| 1788192630 | 28.33° C | 82% | 1009.7 hPa | 0 mm | 0.45 m/s, 243° | 0 W/m² | - |
| 1788192569 | 28.33° C | 82% | 1009.7 hPa | 0 mm | 0.89 m/s, 240° | 0 W/m² | - |
| 1788192508 | 28.33° C | 82% | 1009.7 hPa | 0 mm | 0.45 m/s, 233° | 0 W/m² | - |
| 1788192447 | 28.33° C | 82% | 1009.8 hPa | 0 mm | 1.34 m/s, 186° | 0 W/m² | - |
| 1788192386 | 28.33° C | 82% | 1009.7 hPa | 0 mm | 0.45 m/s, 221° | 0 W/m² | - |
| 1788192325 | 28.33° C | 82% | 1009.5 hPa | 0 mm | 0.45 m/s, 198° | 0 W/m² | - |
| 1788192265 | 28.33° C | 82% | 1009.7 hPa | 0 mm | 0.45 m/s, 215° | 0 W/m² | - |
| 1788192203 | 28.33° C | 82% | 1009.5 hPa | 0 mm | 0.89 m/s, 215° | 0 W/m² | - |
| 1788192142 | 28.33° C | 82% | 1009.7 hPa | 0 mm | 0.45 m/s, 285° | 0 W/m² | - |
| 1788192081 | 28.33° C | 82% | 1009.7 hPa | 0 mm | 0.45 m/s, 225° | 0 W/m² | - |
| 1788192020 | 28.33° C | 82% | 1009.8 hPa | 0 mm | 0.45 m/s, 224° | 0 W/m² | - |
| 1788191959 | 28.33° C | 82% | 1009.6 hPa | 0 mm | 0.45 m/s, 264° | 0 W/m² | - |
| 1788191897 | 28.33° C | 82% | 1009.6 hPa | 0 mm | 0 m/s | 0 W/m² | - |
| 1788191837 | 28.33° C | 82% | 1009.7 hPa | 0 mm | 0.45 m/s, 207° | 0 W/m² | - |
| 1788191776 | 28.33° C | 82% | 1009.5 hPa | 0 mm | 0.89 m/s, 183° | 0 W/m² | - |
| 1788191715 | 28.33° C | 82% | 1009.6 hPa | 0 mm | 0.45 m/s, 250° | 0 W/m² | - |
* Rain latest hour (hover to see other rain measurements)
** Current wind speed in m/s (hover to see current wind gust speed)